Location: Remedello Sotto
(45.2500°N, 10.3667°E)
Time: 10:07:51
(UTC+00:00)

PSLV R/B - Pass Details

Date: 03 February 2023
Orbit: 491 x 557 km, 97.8° (Epoch: 20 March)

Event Time Altitude Azimuth Distance (km) Brightness Sun altitude
Rises 17:39:17 0° 154° (SSE) 2,563 7.1 -12.8°
Reaches altitude 10° 17:41:22 10° 150° (SSE) 1,691 6.1 -13.2°
Maximum altitude 17:44:54 52° 73° (ENE) 626 3.7 -13.8°
Drops below altitude 10° 17:48:32 10° 356° (N) 1,732 6.3 -14.4°
Sets 17:50:41 0° 352° (N) 2,634 7.3 -14.8°
